Tracking 29033 objects as of 22-Jun-2024
HD Live streaming from Space Station
objects crossing your sky now

STARLINK-5862

Track STARLINK-5862 now!
10-day predictions
STARLINK-5862 is classified as:


NORAD ID: 55920
Int'l Code: 2023-037G
Perigee: 577.1 km
Apogee: 581.3 km
Inclination: 70.0 °
Period: 96.1 minutes
Semi major axis: 6950 km
RCS: Unknown
Launch date: March 17, 2023
Source: United States (US)
Launch site: AIR FORCE WESTERN TEST RANGE (AFWTR)
Your satellite tracking list
Your tracking list is empty




NASA's NSSDC Master Catalog

Two Line Element Set (TLE):
1 55920U 23037G   24174.07070762  .00000917  00000-0  84603-4 0  9995
2 55920  70.0001  62.0620 0002967 267.8598  92.2221 14.98331377 70603
Source of the keplerian elements: AFSPC